This demonstration page uses our WeatherBlox Daily Observations layout. Learn more.

Left ArrowRight Arrow

53.62937, 11.41316

Hourly Observations for December 2, 2021

Temp ( °F °C ) Dew Point ( °F °C ) Humidity (%) Winds ( mph kmh ) Pressure ( in mb ) Visibility ( mi km ) Precip ( " mm )
12:20 am 00:20 Mostly Clear 32 undefined 32 undefined 100 100 W 22 35 29.03 983 1 2 N/A
12:50 am 00:50 Mostly Clear 32 undefined 30 -1 93 93 W 22 35 29.09 985 1 2 N/A
1:20 am 01:20 Mostly Clear 32 undefined 30 -1 93 93 W 21 33 29.09 985 5 8 N/A
1:50 am 01:50 Mostly Clear 32 undefined 30 -1 93 93 W 20 31 29.12 986 30 48 N/A
2:20 am 02:20 Mostly Clear 32 undefined 30 -1 93 93 W 17 28 29.15 987 30 48 N/A
2:50 am 02:50 Mostly Clear 34 1 30 -1 87 87 W 20 31 29.18 988 30 48 N/A
3:20 am 03:20 Mostly Clear 32 undefined 30 -1 93 93 W 17 28 29.18 988 30 48 N/A
3:50 am 03:50 Mostly Clear 32 undefined 30 -1 93 93 W 17 28 29.21 989 30 48 N/A
4:20 am 04:20 Mostly Clear 32 undefined 30 -1 93 93 WNW 18 30 29.21 989 30 48 N/A
4:50 am 04:50 Partly Cloudy 32 undefined 30 -1 93 93 W 15 24 29.24 990 30 48 N/A
5:20 am 05:20 Mostly Cloudy 32 undefined 30 -1 93 93 W 14 22 29.24 990 30 48 N/A
5:50 am 05:50 Mostly Cloudy 32 undefined 30 -1 93 93 W 14 22 29.27 991 30 48 N/A
6:20 am 06:20 Mostly Cloudy 32 undefined 28 -2 87 87 W 13 20 29.27 991 30 48 N/A
6:50 am 06:50 Partly Cloudy 32 undefined 28 -2 87 87 W 12 19 29.27 991 30 48 N/A
7:20 am 07:20 Mostly Clear 32 undefined 27 -3 80 80 W 14 22 29.30 992 30 48 N/A
7:50 am 07:50 Mostly Clear 32 undefined 27 -3 80 80 W 13 20 29.33 993 30 48 N/A
8:20 am 08:20 Mostly Sunny 32 undefined 27 -3 80 80 W 12 19 29.33 993 30 48 N/A
8:50 am 08:50 Mostly Sunny 32 undefined 27 -3 80 80 W 9 15 29.36 994 7 11 N/A
9:20 am 09:20 Mostly Sunny 32 undefined 27 -3 80 80 W 9 15 29.39 995 7 11 N/A
9:50 am 09:50 Mostly Sunny 32 undefined 27 -3 80 80 W 10 17 29.39 995 7 11 N/A
10:20 am 10:20 Mostly Sunny 32 undefined 27 -3 80 80 W 9 15 29.42 996 7 11 N/A
10:50 am 10:50 Mostly Sunny 32 undefined 27 -3 80 80 WNW 9 15 29.42 996 7 11 N/A
11:20 am 11:20 Mostly Sunny 34 1 27 -3 75 75 WNW 9 15 29.41 996 7 11 N/A
11:50 am 11:50 Mostly Sunny 34 1 27 -3 75 75 WNW 10 17 29.44 997 7 11 N/A
12:20 pm 12:20 Mostly Sunny 34 1 27 -3 75 75 W 9 15 29.44 997 7 11 N/A
12:50 pm 12:50 Mostly Sunny 34 1 27 -3 75 75 W 10 17 29.47 998 7 11 N/A
1:20 pm 13:20 Mostly Sunny 34 1 28 -2 81 81 WNW 8 13 29.47 998 7 11 N/A
1:50 pm 13:50 Mostly Sunny 34 1 28 -2 81 81 WNW 10 17 29.47 998 7 11 N/A
2:20 pm 14:20 Mostly Sunny 34 1 27 -3 75 75 WNW 8 13 29.50 999 7 11 N/A
2:50 pm 14:50 Mostly Sunny 34 1 27 -3 75 75 WNW 8 13 29.50 999 7 11 N/A
3:20 pm 15:20 Mostly Sunny 34 1 27 -3 75 75 W 8 13 29.50 999 7 11 N/A
3:50 pm 15:50 Mostly Sunny 34 1 27 -3 75 75 W 8 13 29.53 1000 7 11 N/A
4:20 pm 16:20 Mostly Clear 32 undefined 27 -3 80 80 W 6 9 29.53 1000 7 11 N/A
4:50 pm 16:50 Mostly Clear 32 undefined 28 -2 87 87 W 7 11 29.56 1001 7 11 N/A
5:20 pm 17:20 Mostly Clear 32 undefined 28 -2 87 87 W 7 11 29.59 1002 7 11 N/A
5:50 pm 17:50 Mostly Clear 32 undefined 27 -3 80 80 W 6 9 29.59 1002 7 11 N/A
6:20 pm 18:20 Mostly Clear 32 undefined 28 -2 87 87 W 8 13 29.59 1002 7 11 N/A
6:50 pm 18:50 Mostly Clear 30 -1 27 -3 86 86 W 8 13 29.62 1003 7 11 N/A
7:20 pm 19:20 Mostly Clear 30 -1 27 -3 86 86 W 8 13 29.62 1003 7 11 N/A
7:50 pm 19:50 Mostly Clear 28 -2 25 -4 86 86 SW 5 7 29.62 1003 7 11 N/A
8:20 pm 20:20 Mostly Clear 28 -2 25 -4 86 86 VRB 2 4 29.62 1003 7 11 N/A
8:50 pm 20:50 Mostly Clear 27 -3 25 -4 93 93 SW 3 6 29.62 1003 7 11 N/A
9:20 pm 21:20 Mostly Clear 28 -2 25 -4 86 86 SW 5 7 29.62 1003 30 48 N/A
9:50 pm 21:50 Mostly Clear 28 -2 25 -4 86 86 VRB 3 6 29.62 1003 30 48 N/A
10:20 pm 22:20 Mostly Clear 30 -1 27 -3 86 86 SW 5 7 29.62 1003 30 48 N/A
10:50 pm 22:50 Mostly Clear 30 -1 28 -2 93 93 SW 6 9 29.62 1003 30 48 N/A
11:20 pm 23:20 Mostly Clear 32 undefined 28 -2 87 87 SW 6 9 29.62 1003 30 48 N/A
11:50 pm 23:50 Mostly Cloudy 32 undefined 28 -2 87 87 WSW 10 17 29.62 1003 30 48 N/A

Powered by AerisWeather